Location: Lake Lucerne
(45.5315°N, 88.8489°W)
Time: 20:01:01
(UTC-05:00)

ARIANE 6 FM1 Upper Stage - Pass Details

Date: 21 September 2024
Orbit: 563 x 594 km, 62.0° (Epoch: 09 October)

Event Time Altitude Azimuth Distance (km) Brightness Sun altitude
Rises 19:42:24 0° 191° (S) 2,764 6.2 -9.3°
Reaches altitude 10° 19:44:49 10° 180° (S) 1,877 5.2 -9.7°
Maximum altitude 19:48:30 29° 120° (ESE) 1,071 3.6 -10.4°
Drops below altitude 10° 19:52:13 10° 60° (ENE) 1,908 4.9 -11.0°
Enters shadow 19:53:14 - 54° (NE) 2,273 5.4 -11.2°
